Location: Mauries
(43.6188°N, 0.3322°W)
Time: 04:48:23
(UTC+00:00)

Cosmos 2278 Rocket - Pass Details

Date: 14 January 2026
Orbit: 839 x 846 km, 71.0° (Epoch: 15 February)

Event Time Altitude Azimuth Distance (km) Brightness Sun altitude
Rises 05:08:37 0° 179° (S) 3,376 5.4 -25.5°
Reaches altitude 10° 05:11:12 10° 172° (S) 2,446 4.8 -25.0°
Maximum altitude 05:16:19 38° 106° (ESE) 1,264 3.6 -24.1°
Drops below altitude 10° 05:21:29 10° 40° (NE) 2,465 5.0 -23.2°
Sets 05:24:05 0° 32° (NNE) 3,406 5.7 -22.7°
